User: anonymous   Login
Location: Unspecified
(32.2450°N, 0.0000°E)
Time: 04:29:28
(UTC+00:00)
Language:

Cosmos 2219 Rocket - Orbit

View from above orbital plane
View from above orbital plane
View from above satellite
View from above satellite

Ground track
Ground track

The orbit is defined by the following mean orbital elements,

1 22220U          26088.18247779 +.00000000 +00000-0 -42482-4 0 00005
2 22220  70.9997 147.3158 0010707  59.9120   3.2767 14.16863910    05
Epoch (UTC): 29 March 2026 04:22:46
Eccentricity: 0.0010707
inclination: 70.9997°
perigee height: 828 km
apogee height: 844 km
right ascension of ascending node: 147.3158°
argument of perigee: 59.9120°
revolutions per day: 14.16863910
mean anomaly at epoch: 3.2767°

The dashed part of the orbit path shows where the satellite is in the earth's shadow,  

DLR